Regional Weather Roundup
Issued by NWS

Home | Current Version | Previous Version | Text Only | Print | Product List | Glossary Off
Versions: 1 2 3 4 5 6 7 8 9 10 11 12 13 14 15 16 17 18 19 20 21 22 23 24 25 26 27 28 29 30 31 32 33 34 35 36 37 38 39 40 41 42 43 44 45 46 47 48 49 50

000
ASUS43 KMPX 262010
RWRMN
WEATHER ROUNDUP FOR MINNESOTA
NATIONAL WEATHER SERVICE TWIN CITIES/CHANHASSEN MN
300 PM CDT THU APR 26 2018


NOTE: "FAIR" INDICATES FEW OR NO CLOUDS BELOW 12,000 FEET WITH NO
SIGNIFICANT WEATHER AND/OR OBSTRUCTIONS TO VISIBILITY. N/A MEANS
CURRENT SKY AND/OR WEATHER CONDITIONS ARE NOT AVAILABLE.

MNZ060>063-068>070-262100-
   Twin Cities Metro

CITY           SKY/WX    TMP DP  RH WIND       PRES   REMARKS
TWIN CITIES    FAIR      66  34  30 N14G23    29.86S
ST PAUL        FAIR      64  34  32 N17G24    29.86S
CRYSTAL        FAIR      65  33  30 NW17G26   29.86S
BLAINE         MOSUNNY   64  30  27 N20G26    29.87R
LAKEVILLE      FAIR      63  36  36 NW21      29.85S
EDEN PRAIRIE   FAIR      64  32  30 NW21G28   29.86S
SOUTH ST PAUL  FAIR      65  34  32 N16G23    29.85S
LAKE ELMO      FAIR      63  37  39 NW10G21   29.86S
$$
MNZ001>005-007-008-013>017-022>024-027-028-262100-
   Northwest Minnesota

CITY           SKY/WX    TMP DP  RH WIND       PRES   REMARKS
BEMIDJI        FAIR      56  28  34 NW18G26   29.95R
HALLOCK        FAIR      57  23  26 N13G20    29.99F
ROSEAU         FAIR      54  27  35 NW16      29.97F
WARROAD        FAIR      54  25  32 NW13      29.97F
THIEF RVR FALL FAIR      53  23  31 NW22G29   30.00
CROOKSTON      FAIR      55  30  38 N21G26    30.02F
FOSSTON        FAIR      54  25  32 NW17G24   30.00S
DETROIT LAKES  FAIR      54  30  40 NW20G28   30.01S
MOORHEAD       FAIR      57  27  30 NW23G31   30.03F
PARK RAPIDS    FAIR      57  25  29 NW21G30   29.94S
MAHNOMEN       FAIR      54  28  36 NW23G29   30.00R
$$
MNZ006-009>011-018-025>026-262100-
   North Central Minnesota

CITY           SKY/WX    TMP DP  RH WIND       PRES   REMARKS
BAUDETTE       FAIR      52  27  38 NW16G22   29.95F
FLAG ISLAND    FAIR      45  27  49 NW12      29.95S
INTL FALLS     FAIR      54  23  30 NW16G23   29.91S
WASKISH        CLOUDY    52  28  40 W5        29.95R
BIG FORK       FAIR      55  27  33 N9G20     29.91R
LONGVILLE      FAIR      55  27  33 NW14G21   29.93F
GRAND RAPIDS   PTSUNNY   53  29  39 N16G22    29.92F
CRANE LAKE     PTSUNNY   48  27  43 N8        29.92S
ORR            FAIR      52  25  35 NW8       29.88S
COOK           FAIR      52  28  40 NW12G17   29.90S
WALKER         FAIR      55  25  31 N15G26    29.93S
$$
MNZ012-019>021-037-262100-
   Northeast Minnesota

CITY           SKY/WX    TMP DP  RH WIND       PRES   REMARKS
DULUTH         FAIR      54  31  41 N17G26    29.87R
ELY            FAIR      48  27  43 NW15      29.88S
HIBBING        FAIR      53  30  41 NW17      29.89S
EVELETH        FAIR      51  27  40 NW13G20   29.90F
DULUTH HARBOR  FAIR      54  36  50 N12       29.88S
TWO HARBORS    FAIR      57  36  44 NW7G20    29.86R
SILVER BAY     FAIR      54  30  40 W7        29.86R
GRAND MARAIS     N/A     56  30  37 N9G18     29.85R
G MARAIS ARPRT FAIR      46  27  46 NW7       29.84R
$$
MNZ029>031-032-039>041-046>048-054>057-064-262100-
   West Central Minnesota

CITY           SKY/WX    TMP DP  RH WIND       PRES   REMARKS
FERGUS FALLS   FAIR      55  27  33 N20G35    29.98S
WHEATON        SUNNY     57  27  30 NW23G35   30.05S
MORRIS         SUNNY     55  32  41 NW25G31   30.00S
ALEXANDRIA     FAIR      58  26  29 N17G29    29.98S
ELBOW LAKE     FAIR      53  29  40 NW22G29   30.01S
WADENA         FAIR      55  32  41 NW17G23   29.95S
GLENWOOD       FAIR      55  28  35 NW21      29.98R
APPLETON       SUNNY     61  28  29 N32G39    30.01R
BENSON         SUNNY     57  28  33 N21G33    30.01R
ORTONVILLE     SUNNY     57  30  35 NW21G35   30.03R
MADISON        SUNNY     61  30  31 N30G38    30.03R
WILLMAR        FAIR      57  28  33 NW26G32   29.99R
$$
MNZ033>034-036-042>043-049>051-058-059-262100-
   Central Minnesota

CITY           SKY/WX    TMP DP  RH WIND       PRES   REMARKS
ST CLOUD       FAIR      62  32  32 N13G21    29.90R
SAUK CENTRE    FAIR      57  30  35 NW21G26   29.95R
PAYNESVILLE    FAIR      59  32  36 NW20G30   29.94R
AITKIN         FAIR      55  28  35 NW10G23   29.89F
PINE RIVER     FAIR      54  28  37 N10G18    29.96S
BRAINERD       FAIR      58  28  32 N16G24    29.93S
STAPLES        FAIR      57  25  28 N12G23    29.93F
LONG PRAIRIE   FAIR      55  32  41 W17G25    29.95R HAZE
LITTLE FALLS   FAIR      59  18  20 NW10G17   29.91F
LITCHFIELD     FAIR      63  30  29 NW15G29   29.92S
BUFFALO        FAIR      62  26  25 NW16G25   29.91R
MAPLE LAKE     FAIR      64  35  34 N12G20    29.91R
HUTCHINSON     FAIR      62  35  37 NW22G28   29.93R
$$
MNZ037-044-045-052-053-262100-
   East Central Minnesota

CITY           SKY/WX    TMP DP  RH WIND       PRES   REMARKS
PRINCETON      FAIR      64  32  29 NW16G25   29.89R
MORA           FAIR      59  32  36 NW18G31   29.90R
CAMBRIDGE      FAIR      63  39  42 NW15G21   29.88S
RUSH CITY      FAIR      61  32  33 N12G21    29.87R
MOOSE LAKE     FAIR      61  32  33 N15G21    29.86R
HINCKLEY       FAIR      61  32  33 NW16G23   29.87R
CLOQUET        PTSUNNY   57  25  28 NW17G24   29.87R
MCGREGOR       FAIR      57  32  38 NW9G21    29.89F
$$
MNZ071>073-080-081-089-090-097-098-262100-
   Southwest Minnesota

CITY           SKY/WX    TMP DP  RH WIND       PRES   REMARKS
MONTEVIDEO     SUNNY     57  34  41 N31G37    30.01R
GRANITE FALLS  SUNNY     58  31  36 NW31G39   30.02R
CANBY          SUNNY     59  32  36 NW18G29   30.04R
MARSHALL       SUNNY     56  36  47 N29G36    30.00R
REDWOOD FALLS  SUNNY     57  29  34 NW22G31   29.97R
OLIVIA         SUNNY     57  32  38 NW21G31   29.96R
PIPESTONE      SUNNY    N/A N/A N/A N20G33    30.03S
WINDOM         SUNNY     57  32  38 NW26G35   29.97R
WORTHINGTON    SUNNY     56  36  47 N30       30.00R
JACKSON        SUNNY     57  36  44 NW31G37   29.97R
TRACY          SUNNY     56  38  49 NW26G32   30.00R
SLAYTON        SUNNY     54  37  51 NW20G32   30.01R
$$
MNZ065>067-074>077-082>085-091>093-262100-
   South Central Minnesota

CITY           SKY/WX    TMP DP  RH WIND       PRES   REMARKS
MANKATO        FAIR      61  36  39 N21G28    29.90R
NEW ULM        SUNNY     61  30  31 NW21G30   29.93R
ST JAMES       SUNNY     61  39  44 NW25      29.94S
FAIRMONT       SUNNY     59  41  51 N24G32    29.93R
GLENCOE        FAIR      62  36  37 NW18G24   29.90S
OWATONNA       FAIR      63  39  42 NW18G25   29.88R
WASECA         FAIR      63  39  42 NW21G30   29.90S
ALBERT LEA     FAIR      61  36  39 NW13G20   29.88F
$$
MNZ078>079-086>088-094>096-262100-
   Southeast Minnesota

CITY           SKY/WX    TMP DP  RH WIND       PRES   REMARKS
ROCHESTER      FAIR      63  44  50 W13G26    29.85F
RED WING       FAIR      66  27  22 W14G22    29.83S
STANTON        FAIR      64  38  37 NW14G22   29.85R
DODGE CENTER   FAIR      61  39  44 W16G23    29.86S
WINONA         FAIR      66  36  32 W9G17     29.81S
AUSTIN         FAIR      61  39  44 W18       29.87S
PRESTON        FAIR      63  39  41 W15G22    29.87S
$$
ABBREVIATIONS USED IN REMARKS
   TC - TEMPERATURES IN CELSIUS
  WCI - WIND CHILL INDEX
   HX - HEAT INDEX
  VSB - VISIBILITY
$$



USA.gov is the U.S. government's official web portal to all federal, state and local government web resources and services.